Regional Weather Roundup
Issued by NWS

Home | Current Version | Previous Version | Graphics & Text | Print | Product List | Glossary On
Versions: 1 2 3 4 5 6 7 8 9 10 11 12 13 14 15 16 17 18 19 20 21 22 23 24 25 26 27 28 29 30 31 32 33 34 35 36 37 38 39 40 41 42 43 44 45 46 47 48 49 50
332
ASUS43 KIND 191459
RWRIN

WEATHER ROUNDUP FOR INDIANA
NATIONAL WEATHER SERVICE INDIANAPOLIS IN
1000 AM EST THU JAN 19 2017

NOTE: "FAIR" INDICATES FEW OR NO CLOUDS BELOW 12,000 FEET WITH NO
SIGNIFICANT WEATHER AND/OR OBSTRUCTIONS TO VISIBILITY.

* - STATION DOES NOT REPORT WEATHER SUCH AS PRECIPITATION OR FOG.

+ - STATION NOT QUALITY CONTROLLED BY THE NATIONAL WEATHER SERVICE.
    USE DATA WITH CAUTION...ESPECIALLY DEWPOINT AND RELATIVE
    HUMIDITY OBSERVATIONS.

INZ001>003-010>013-019-020-191600-
NORTHWEST INDIANA

CITY           SKY/WX    TMP DP  RH WIND       PRES   REMARKS
GARY /AIRPORT/ CLOUDY    37  36  93 SE7       30.02F FOG
MONTICELLO +   CLOUDY    35  34  95 SE3       30.01F FOG

$$

LMZ046-743>745-191600-
SOUTHERN LAKE MICHIGAN

STATION/POSITION TIME  TEMP    WIND        PRES    WAVE
                       AIR SEA DIR/SP/G            HT
                 (UTC) (F)     (DEG/KT/KT) (MB)    (FT)
BURNS HARBOR     1440   36     170/  9/ 12 1017.3S

$$

INZ004-005-014>016-021>024-191600-
NORTH CENTRAL INDIANA

CITY           SKY/WX    TMP DP  RH WIND       PRES   REMARKS
ELKHART        CLOUDY    36  32  87 SW6       30.04S FOG
GOSHEN         CLOUDY    35  32  88 S9        30.04S FOG     WCI  28
PERU/GRISSOM   FOG       35  35 100 SE8       30.02F VSB 1   WCI  28
SOUTH BEND     CLOUDY    34  34 100 SE8       30.04S FOG     WCI  27

$$

INZ006>009-017-018-025>027-191600-
NORTHEAST INDIANA

CITY           SKY/WX    TMP DP  RH WIND       PRES   REMARKS
ANGOLA *+      CLOUDY    34  34 100 S3        30.05R
FORT WAYNE     CLOUDY    36  33  89 S6        30.07R FOG
KENDALLVILLE + CLOUDY    33  33 100 S6        30.06R FOG     WCI  27

$$

INZ028-029-035-036-043>045-051>053-191600-
WEST CENTRAL INDIANA

CITY           SKY/WX    TMP DP  RH WIND       PRES   REMARKS
CRAWFORDSVL +  CLOUDY    36  36 100 E9        30.00F FOG
LAFAYETTE      PTSUNNY   37  35  92 SE7       30.01F FOG
TERRE HAUTE    CLOUDY    39  35  86 E10       29.99F

$$

INZ030>032-037>040-046>048-054>057-064-065-191600-
CENTRAL INDIANA

CITY           SKY/WX    TMP DP  RH WIND       PRES   REMARKS
ANDERSON       FOG       36  36 100 SE6       30.05F VSB 3/4
COLUMBUS       SUNNY     39  39 100 SE7       30.05F
INDIANAPOLIS   PTSUNNY   39  36  89 SE9       30.03F FOG
-EAGLE CREEK   CLOUDY    39  35  86 SE9       30.02F
KOKOMO +       CLOUDY    35  35 100 SE7       30.04S FOG     WCI  29
MT COMFORT *+  CLOUDY    37  36  93 SE7       30.04S
SHELBYVILLE    CLOUDY    40  36  86 E7        30.03F FOG

$$

INZ033-034-041-042-049-050-058-059-191600-
EAST CENTRAL INDIANA

CITY           SKY/WX    TMP DP  RH WIND       PRES   REMARKS
MUNCIE         CLOUDY    37  34  89 MISG      30.04F FOG

$$

INZ060-061-067>069-081>083-085>088-191600-
SOUTHWEST INDIANA

CITY           SKY/WX    TMP DP  RH WIND       PRES   REMARKS
EVANSVILLE     CLOUDY    46  38  73 E7        29.97F
HUNTINGBURG *+ CLOUDY    45  39  81 SE8       29.99F

$$

INZ062-063-066-070>080-084-089>092-191600-
SOUTH CENTRAL AND SOUTHEAST INDIANA

CITY           SKY/WX    TMP DP  RH WIND       PRES   REMARKS
BLOOMINGTON    MOSUNNY   42  37  82 SE8       30.00F
MADISON *+     CLOUDY    39  36  87 E8        30.06S
SEYMOUR +      MOSUNNY   43  39  87 E5        30.04F

$$





USA.gov is the U.S. government's official web portal to all federal, state and local government web resources and services.